Meteo pe oră la Dzialowo

Astăzi, 17 Aprilie, Sâmbătă

Timp Temperatura Precipitaţii Vânt Presiune Umiditate
00:00 +4°C° 0 mm 2 m/s 755 mmHg 94%
01:00 +4°C° 0 mm 2 m/s 755 mmHg 95%
02:00 +4°C° 0 mm 3 m/s 754 mmHg 95%
03:00 +4°C° 0 mm 3 m/s 754 mmHg 95%
04:00 +5°C° 0 mm 3 m/s 754 mmHg 95%
05:00 +5°C° 0 mm 3 m/s 754 mmHg 94%
06:00 +7°C° 0 mm 3 m/s 755 mmHg 92%
07:00 +7°C° 0 mm 4 m/s 755 mmHg 90%
08:00 +8°C° 0 mm 4 m/s 755 mmHg 83%
09:00 +11°C° 0 mm 4 m/s 755 mmHg 75%
10:00 +12°C° 0 mm 4 m/s 755 mmHg 68%
11:00 +13°C° 0.2 mm 4 m/s 755 mmHg 63%
12:00 +14°C° 0.2 mm 4 m/s 755 mmHg 59%
13:00 +14°C° 0.2 mm 5 m/s 755 mmHg 54%
14:00 +14°C° 0.2 mm 4 m/s 755 mmHg 58%
15:00 +13°C° 0.2 mm 4 m/s 755 mmHg 62%
16:00 +13°C° 0.2 mm 4 m/s 755 mmHg 65%
17:00 +12°C° 0.2 mm 4 m/s 755 mmHg 73%
18:00 +10°C° 0.2 mm 3 m/s 755 mmHg 80%
19:00 +9°C° 0.2 mm 3 m/s 755 mmHg 88%
20:00 +9°C° 0.1 mm 3 m/s 755 mmHg 90%
21:00 +8°C° 0.1 mm 3 m/s 755 mmHg 91%
22:00 +8°C° 0.1 mm 3 m/s 755 mmHg 93%
23:00 +7°C° 0 mm 3 m/s 756 mmHg 94%

Mâine, 18 Aprilie, Duminică

Timp Temperatura Precipitaţii Vânt Presiune Umiditate
00:00 +7°C° 0 mm 3 m/s 756 mmHg 94%
01:00 +7°C° 0 mm 3 m/s 756 mmHg 95%
02:00 +7°C° 0 mm 3 m/s 756 mmHg 95%
03:00 +5°C° 0 mm 3 m/s 756 mmHg 94%
04:00 +5°C° 0 mm 3 m/s 755 mmHg 94%
05:00 +7°C° 0 mm 3 m/s 756 mmHg 91%
06:00 +7°C° 0 mm 3 m/s 756 mmHg 89%
07:00 +8°C° 0 mm 3 m/s 756 mmHg 86%
08:00 +9°C° 0.1 mm 3 m/s 756 mmHg 83%
09:00 +10°C° 0.1 mm 2 m/s 756 mmHg 81%
10:00 +12°C° 0.1 mm 2 m/s 756 mmHg 79%
11:00 +10°C° 0.5 mm 2 m/s 756 mmHg 83%
12:00 +10°C° 0.5 mm 2 m/s 756 mmHg 87%
13:00 +10°C° 0.5 mm 2 m/s 756 mmHg 91%
14:00 +10°C° 0.9 mm 2 m/s 756 mmHg 92%
15:00 +10°C° 0.9 mm 1 m/s 756 mmHg 93%
16:00 +10°C° 0.9 mm 1 m/s 755 mmHg 94%
17:00 +10°C° 0.2 mm 1 m/s 756 mmHg 94%
18:00 +10°C° 0.2 mm 1 m/s 756 mmHg 95%
19:00 +9°C° 0.2 mm 2 m/s 756 mmHg 95%
20:00 +8°C° 0 mm 2 m/s 756 mmHg 94%
21:00 +8°C° 0 mm 2 m/s 756 mmHg 94%
22:00 +8°C° 0 mm 2 m/s 756 mmHg 94%
23:00 +8°C° 0 mm 2 m/s 756 mmHg 94%

Poimâine, 19 Aprilie, Luni

Timp Temperatura Precipitaţii Vânt Presiune Umiditate
00:00 +8°C° 0 mm 2 m/s 756 mmHg 93%
01:00 +8°C° 0 mm 2 m/s 756 mmHg 92%
02:00 +8°C° 0 mm 2 m/s 756 mmHg 92%
03:00 +8°C° 0 mm 2 m/s 756 mmHg 91%
04:00 +7°C° 0 mm 2 m/s 756 mmHg 91%
05:00 +8°C° 0 mm 2 m/s 756 mmHg 88%
06:00 +8°C° 0 mm 2 m/s 756 mmHg 86%
07:00 +9°C° 0 mm 2 m/s 756 mmHg 84%
08:00 +10°C° 0 mm 2 m/s 756 mmHg 77%
09:00 +11°C° 0 mm 3 m/s 756 mmHg 71%
10:00 +12°C° 0 mm 3 m/s 756 mmHg 64%
11:00 +13°C° 0 mm 3 m/s 756 mmHg 60%
12:00 +13°C° 0 mm 3 m/s 755 mmHg 56%
13:00 +14°C° 0 mm 3 m/s 755 mmHg 52%
14:00 +13°C° 0.2 mm 3 m/s 755 mmHg 56%
15:00 +13°C° 0.2 mm 3 m/s 755 mmHg 60%
16:00 +13°C° 0.2 mm 3 m/s 754 mmHg 64%
17:00 +12°C° 0.2 mm 3 m/s 754 mmHg 69%
18:00 +10°C° 0.2 mm 3 m/s 754 mmHg 73%
19:00 +9°C° 0.2 mm 3 m/s 754 mmHg 78%
20:00 +8°C° 0 mm 3 m/s 754 mmHg 82%
21:00 +8°C° 0 mm 2 m/s 754 mmHg 85%
22:00 +7°C° 0 mm 2 m/s 754 mmHg 88%
23:00 +6°C° 0 mm 2 m/s 754 mmHg 89%

20 Aprilie, Marţi

Timp Temperatura Precipitaţii Vânt Presiune Umiditate
00:00 +6°C° 0 mm 2 m/s 754 mmHg 90%
01:00 +6°C° 0 mm 2 m/s 754 mmHg 91%
02:00 +6°C° 0 mm 2 m/s 754 mmHg 90%
03:00 +6°C° 0 mm 2 m/s 753 mmHg 89%
04:00 +6°C° 0 mm 2 m/s 753 mmHg 88%
05:00 +7°C° 0 mm 2 m/s 753 mmHg 86%
06:00 +7°C° 0 mm 2 m/s 753 mmHg 84%
07:00 +7°C° 0 mm 2 m/s 753 mmHg 82%
08:00 +8°C° 0 mm 2 m/s 753 mmHg 75%
09:00 +9°C° 0 mm 2 m/s 753 mmHg 67%
10:00 +10°C° 0 mm 3 m/s 753 mmHg 59%
11:00 +11°C° 0 mm 3 m/s 753 mmHg 56%
12:00 +12°C° 0 mm 2 m/s 752 mmHg 53%
13:00 +13°C° 0 mm 2 m/s 752 mmHg 50%
14:00 +12°C° 0.1 mm 3 m/s 752 mmHg 53%
15:00 +12°C° 0.1 mm 3 m/s 751 mmHg 56%
16:00 +11°C° 0.1 mm 4 m/s 751 mmHg 59%
17:00 +10°C° 0.1 mm 3 m/s 751 mmHg 66%
18:00 +9°C° 0.1 mm 3 m/s 751 mmHg 73%
19:00 +8°C° 0.1 mm 3 m/s 751 mmHg 81%
20:00 +7°C° 0 mm 3 m/s 751 mmHg 85%
21:00 +6°C° 0 mm 2 m/s 751 mmHg 89%
22:00 +5°C° 0 mm 2 m/s 751 mmHg 92%
23:00 +4°C° 0 mm 2 m/s 751 mmHg 93%

21 Aprilie, Miercuri

Timp Temperatura Precipitaţii Vânt Presiune Umiditate
00:00 +4°C° 0 mm 2 m/s 751 mmHg 93%
01:00 +4°C° 0 mm 2 m/s 751 mmHg 94%
02:00 +3°C° 0 mm 2 m/s 751 mmHg 93%
03:00 +3°C° 0 mm 2 m/s 751 mmHg 93%
04:00 +3°C° 0 mm 2 m/s 751 mmHg 93%
05:00 +4°C° 0 mm 2 m/s 751 mmHg 87%
06:00 +5°C° 0 mm 2 m/s 751 mmHg 82%
07:00 +7°C° 0 mm 2 m/s 751 mmHg 76%
08:00 +8°C° 0 mm 3 m/s 751 mmHg 68%
09:00 +10°C° 0 mm 3 m/s 751 mmHg 60%
10:00 +11°C° 0 mm 4 m/s 751 mmHg 52%
11:00 +12°C° 0 mm 4 m/s 751 mmHg 52%
12:00 +12°C° 0 mm 5 m/s 750 mmHg 53%
13:00 +12°C° 0 mm 5 m/s 750 mmHg 53%
14:00 +11°C° 0.1 mm 6 m/s 750 mmHg 56%
15:00 +10°C° 0.1 mm 6 m/s 750 mmHg 60%
16:00 +10°C° 0.1 mm 6 m/s 750 mmHg 63%
17:00 +9°C° 0.1 mm 6 m/s 751 mmHg 63%
18:00 +7°C° 0.1 mm 5 m/s 751 mmHg 64%
19:00 +6°C° 0.1 mm 5 m/s 751 mmHg 64%
20:00 +5°C° 0 mm 4 m/s 752 mmHg 66%
21:00 +4°C° 0 mm 4 m/s 752 mmHg 68%
22:00 +2°C° 0 mm 3 m/s 752 mmHg 70%
23:00 +2°C° 0 mm 3 m/s 752 mmHg 73%

22 Aprilie, Joi

Timp Temperatura Precipitaţii Vânt Presiune Umiditate
00:00 +1°C° 0 mm 4 m/s 752 mmHg 76%
01:00 +1°C° 0 mm 4 m/s 752 mmHg 79%
02:00 +1°C° 0 mm 4 m/s 751 mmHg 78%
03:00 +1°C° 0 mm 5 m/s 751 mmHg 77%
04:00 +1°C° 0 mm 5 m/s 751 mmHg 76%
05:00 +2°C° 0 mm 5 m/s 752 mmHg 74%
06:00 +2°C° 0 mm 6 m/s 752 mmHg 72%
07:00 +3°C° 0 mm 6 m/s 752 mmHg 70%
08:00 +3°C° 0.1 mm 7 m/s 752 mmHg 65%
09:00 +4°C° 0.1 mm 7 m/s 752 mmHg 61%
10:00 +5°C° 0.1 mm 8 m/s 752 mmHg 56%
11:00 +5°C° 0.1 mm 8 m/s 753 mmHg 55%
12:00 +5°C° 0.1 mm 7 m/s 753 mmHg 54%
13:00 +5°C° 0.1 mm 7 m/s 753 mmHg 53%
14:00 +6°C° 0.2 mm 7 m/s 753 mmHg 55%
15:00 +7°C° 0.2 mm 6 m/s 754 mmHg 57%
16:00 +7°C° 0.2 mm 6 m/s 754 mmHg 59%
17:00 +5°C° 0.1 mm 6 m/s 754 mmHg 62%
18:00 +5°C° 0.1 mm 5 m/s 754 mmHg 66%
19:00 +3°C° 0.1 mm 5 m/s 755 mmHg 70%
20:00 +4°C° 0 mm 4 m/s 755 mmHg 75%
21:00 +3°C° 0 mm 4 m/s 756 mmHg 80%
22:00 +3°C° 0 mm 4 m/s 756 mmHg 85%
23:00 +2°C° 0 mm 3 m/s 757 mmHg 87%
Arată mai mult

Formular de consimțământ

Meteoprog și furnizorii noștri de servicii pot stoca și accesa date personale, precum cookies, identificatori de dispozitiv sau alte tehnologii similare pe dispozitivul dumneavoastră și procesa astfel de date pentru a personaliza conținutul și reclamele, dar și pentru a oferi caracteristici de social media și pentru a analiza traficul.

  • Stocarea și/sau accesarea informațiilor pe dispozitivul dumneavoastră

    Cookies, identificatori de dispozitiv sau alte informații pot fi stocate sau accesate pe dispozitiv în scopurile indicate mai sus.

  • Reclame și conținut personalizat, evaluarea reclamelor și a conținutului, informații despre audiențe și dezvoltarea produselor

    Reclamele și conținutul pot fi personalizate pe baza unui profil. Pot fi adăugate date suplimentare pentru a personaliza mai bine reclamele și conținutul. Performanța reclamelor și conținutului poate fi măsurată. Pot fi obținute informații despre utilizatorii care au văzut reclamele și conținutul. Aceste date pot fi utilizate pentru a dezvolta sau îmbunătăți experiența utilizatorilor, sistemele și software-ul.

Dând clic pe ‘Sunt de acord’, permiteți utilizarea cookie-urilor menționate, a identificatorilor de dispozitiv, balizelor web sau altor tehnologii similare. Setările pot fi modificate din browser-ul dispozitivului dumneavoastră.

În anumite scopuri, interesele legitime pot prima asupra consimțământului. Puteți citi mai multe informații în acest sens în Politica privind Confidențialitatea Datelor și Cookie.